Simultaneous Nadir Overpasses (SNOs) Predictions

Prediction of SNOs between GOES-16 and METOP-B Satellite Orbit:

Table of predicted SNOs for the next 14.0 days since TLE Epoch: 5/18/2024
Index Date Time (GOES-16) GOES-16 Lat,Lon METOP-B Lat,Lon Distance(km) Time Diff (sec)
1 05/19/2024 02:30:40 -0.06, -75.20 -0.37, -76.56 155.48 80
2 05/20/2024 02:07:19 -0.06, -75.21 0.77, -71.57 414.75 80
3 05/21/2024 14:26:06 0.05, -75.22 0.26, -76.13 102.93 80
4 05/22/2024 14:08:05 0.05, -75.23 -0.89, -71.14 467.50 80
5 05/24/2024 02:27:01 -0.05, -75.24 -0.14, -75.73 55.29 80
6 05/26/2024 14:22:26 0.04, -75.26 0.04, -75.28 2.39 80
7 05/29/2024 02:20:40 -0.03, -75.28 0.06, -74.88 46.40 80
8 05/30/2024 14:39:27 0.02, -75.31 0.92, -79.44 470.04 80
9 05/31/2024 14:21:25 0.02, -75.32 -0.20, -74.44 101.57 80
